Location: Unspecified
(0.0000°N, 0.0000°E)
Time: 13:37:35
(UTC+00:00)

ISS - Pass Details

Date: 19 June 2021
Orbit: 417 x 422 km, 51.6° (Epoch: 18 June)

Event Time Altitude Azimuth Distance (km) Brightness Sun altitude
Exits shadow 05:09:46 13° 283° (WNW) 1,302 -1.7 -11.8°
Maximum altitude 05:10:52 15° 306° (NW) 1,215 -1.7 -11.6°
Drops below altitude 10° 05:12:54 10° 343° (NNW) 1,486 -0.9 -11.1°
Sets 05:15:37 0° 8° (N) 2,344 0.5 -10.5°
